{"data":{"norad_id":37867,"epoch":"2026-05-25T04:18:26.021376Z","epoch_age_seconds":59416,"freshness":"FRESH","line1":"1 37867U 11064A   26145.17946784 -.00000041  00000+0  00000+0 0  9991","line2":"2 37867  65.2579  73.6474 0023243 240.8513 272.9476  2.13103610113273","mean_motion":2.1310361,"eccentricity":0.0023243,"inclination_deg":65.2579,"raan_deg":73.6474,"arg_perigee_deg":240.8513,"mean_anomaly_deg":272.9476,"bstar":0,"rev_number":11327,"period_min":675.72764253032,"perigee_km":19070.470949215,"apogee_km":19189.046954336,"semimajor_km":25507.895951775,"source":"CELESTRAK","updated_at":"2026-05-25T13:38:23.891691Z"}}